[[{"header":{"parameterUnit":"m.s-1","parameterCategory":1,"la1":30.2991,"la2":30.254,"lo1":-89.0895,"lo2":-89.0444,"dy":0.0017,"dx":0.0017,"nx":28,"ny":28,"refTime":"2023-09-07T09:00:00:Z","depth":0,"parameterNumber":2,"parameterNumberName":"U-component_of_WINDS"},"data":[0,0,0,0,0,0,0,0,0,0,0,0,0,0,0,0,0,0,0,0,0,0,0,0,0,0,0,0,0,0,0,0,0,0,0,0,0,0,0,0,0,0,0,0,0,0,0,0,0,0,0,0,0,0,0,0,0,0,3.8337,3.8338,0,3.8514,3.8516,3.8518,3.8457,3.8453,3.8449,3.8445,3.8633,3.8641,3.8649,0,0,0,0,0,0,0,0,0,0,0,0,0,3.795,3.7958,3.8336,3.8339,3.8341,3.8513,3.8516,3.8518,3.8457,3.8452,3.8448,3.8443,3.863,3.864,3.865,0,0,0,0,0,0,0,0,0,0,0,0,0,3.8122,3.796,3.8336,3.8331,3.8332,3.8513,3.8516,3.8519,3.8458,3.8452,3.8446,3.8441,3.8626,3.8639,3.8652,3.885,0,0,3.8691,3.8697,0,0,0,0,0,0,0,0,3.8112,3.8136,3.833,3.8332,3.8333,3.8457,3.8448,3.863,3.846,3.8411,3.8445,3.8438,3.8579,3.8596,3.8642,3.8858,3.8866,3.8693,3.87,3.8706,3.871,0,0,0,0,0,0,0,3.81,3.8128,3.8407,3.8332,3.8335,3.8322,3.8339,3.8483,3.8526,3.8414,3.841,3.8432,3.8579,3.863,3.8646,3.8869,3.8692,3.8704,3.8712,3.8717,3.9257,3.9263,0,0,0,0,0,0,3.8087,3.8119,3.8401,3.8412,3.8206,3.8333,3.8353,3.8423,3.8524,3.8534,3.8437,3.8428,3.861,3.8631,3.8652,3.889,3.8706,3.8718,3.8725,3.925,3.9258,3.9265,0,0,0,0,0,0,3.8079,3.8112,3.8394,3.8264,3.8299,3.8346,3.8425,3.843,3.848,3.8541,3.8549,3.848,3.8607,3.8634,3.8801,3.8896,3.8724,3.8736,3.9243,3.9253,3.9262,3.9368,0,0,0,0,0,0,3.8068,3.811,3.8184,3.8266,3.8306,3.8538,3.8431,3.8438,3.8502,3.8493,3.8584,3.8593,3.8604,3.8781,3.8813,3.8911,3.8746,3.9234,3.9247,3.9259,3.9356,3.938,3.94,0,0,0,0,0,3.8054,3.8209,3.8188,3.8223,3.84,3.8543,3.8566,3.8574,3.851,3.8586,3.8625,3.859,3.888,3.8799,3.8835,3.8937,3.9228,3.9243,3.9258,3.9346,3.9375,3.94,0,0,0,0,0,0,3.8139,3.8219,3.8198,3.8383,3.8456,3.8533,3.8629,3.8605,3.87,3.8687,3.8695,3.8716,3.8887,3.8929,3.8837,3.9134,3.9045,3.9068,3.91,3.9128,3.915,3.9136,3.8757,0,0,0,0,0,3.8178,3.8286,3.8352,3.8509,3.8547,3.8582,3.8644,3.8644,3.8721,3.8752,3.8804,3.8882,3.899,3.9062,3.9165,3.9362,3.9381,3.945,3.9472,3.949,3.951,3.9617,3.9648,3.9314,3.9314,3.9313,0,0,3.8263,3.832,3.8388,3.8527,3.8584,3.8697,3.8608,3.8732,3.8816,3.8772,3.8931,3.8972,3.9059,3.9242,3.9325,3.9282,3.9606,3.9509,3.9523,3.9533,3.9635,3.9666,3.9695,3.9324,3.9322,3.932,0,0,3.8473,3.8527,3.8663,3.8722,3.8808,3.8831,3.8863,3.8944,3.8968,3.9128,3.9097,3.9198,3.9385,3.9449,3.9505,3.974,3.9712,3.9774,3.989,3.9994,4.002,4.0044,4.0127,4.0157,3.9793,3.9793,3.9793,0,3.8567,3.8734,3.8737,3.8863,3.8925,3.8889,3.9027,3.9085,3.9202,3.9246,3.9196,3.943,3.9486,3.9683,3.974,3.9787,3.9825,3.9763,4.0016,4.004,4.0061,4.0141,4.0172,3.98,3.9799,3.9799,3.9798,0,3.8845,3.8962,3.9062,3.9173,3.9247,3.9379,3.9403,3.9478,3.9471,3.9499,3.9663,3.9729,3.9845,3.9892,3.9888,4.0088,4.0059,4.0013,3.9924,4.01,4.0175,4.0205,3.981,3.9807,3.9805,3.9804,0,0,3.9114,3.9224,3.9261,3.931,3.9403,3.9494,3.9625,3.9736,3.98,3.9882,3.9992,4.0151,4.0109,4.0174,4.0176,4.0268,4.0449,4.0211,4.0213,4.0252,4.0673,4.0707,4.0742,4.043,4.0436,4.0441,4.0666,0,3.9331,3.9557,3.9564,3.9773,3.988,3.9847,3.9961,4.0031,4.0061,4.0158,4.0192,4.0304,4.024,4.0279,4.0368,4.0408,4.0533,4.0392,4.0534,4.0539,4.0512,4.0781,4.0817,4.1025,4.0695,4.07,4.0704,0,3.9615,3.9703,3.9921,3.9998,4.0043,4.0145,4.0247,4.0341,4.042,4.0435,4.0507,4.0496,4.0631,4.0538,4.0725,4.0628,4.0687,4.0716,4.0724,4.0737,4.0631,4.0801,4.1092,4.1123,4.075,4.0746,4.0743,0,3.9787,3.9962,4.0114,4.0158,4.0252,4.0324,4.0367,4.044,4.0506,4.0597,4.064,4.0746,4.0804,4.0887,4.0905,4.0835,4.1092,4.1,4.1109,4.1109,4.1164,4.116,4.1468,4.1204,4.1203,4.1203,4.1202,0,4.0029,4.0164,4.0193,4.0287,4.0437,4.0445,4.0594,4.0632,4.0697,4.0799,4.0778,4.0875,4.0893,4.0994,4.101,4.1162,4.1189,4.1206,4.1208,4.1207,4.1205,4.1245,4.1231,4.1211,4.1209,4.1207,4.1206,0,4.0247,4.0272,4.0436,4.0511,4.0533,4.064,4.0705,4.0795,4.0822,4.0952,4.0983,4.1026,4.1144,4.117,4.1311,4.1322,4.1502,4.1491,4.1474,4.1473,4.158,4.1569,4.1924,4.1971,4.1676,4.1679,4.1682,0,4.0399,4.0502,4.0586,4.0652,4.0697,4.0804,4.087,4.0882,4.0953,4.1051,4.113,4.1245,4.1337,4.1527,4.1573,4.168,4.1671,4.1788,4.1687,4.1683,4.1672,4.1665,4.1675,4.1807,4.1811,4.1813,4.1815,0,4.0666,4.0673,4.0769,4.087,4.095,4.103,4.1107,4.1163,4.1185,4.1266,4.1385,4.1456,4.1599,4.1713,4.1821,4.1867,4.1846,4.1847,4.1877,4.1877,4.1863,4.1871,4.1526,4.1838,4.1836,4.1834,4.1833,4.1832,4.0856,4.0945,4.1018,4.1125,4.1184,4.1256,4.1344,4.1382,4.148,4.1595,4.1597,4.1727,4.1804,4.1946,4.1998,4.2101,4.2065,4.211,4.2121,4.2132,4.2141,4.1847,4.2121,4.2121,4.212,4.212,4.2119,0,4.112,4.1165,4.1264,4.1371,4.1456,4.1426,4.151,4.1583,4.1697,4.177,4.186,4.1997,4.2108,4.2162,4.2272,4.2344,4.2337,4.2373,4.2367,4.2378,4.2167,4.2129,4.2376,4.2376,4.2376,4.2376,4.2376,4.2376,4.1268,4.1417,4.1433,4.1611,4.1656,4.178,4.1831,4.1897,4.1955,4.2108,4.2199,4.2232,4.2298,4.2413,4.2514,4.2527,4.2568,4.2608,4.2617,4.2419,4.2393,4.2368,4.2332,4.2617,4.2618,4.2818,4.282,4.2822]},{"header":{"parameterUnit":"m.s-1","parameterCategory":1,"la1":30.2991,"la2":30.254,"lo1":-89.0895,"lo2":-89.0444,"dy":0.0017,"dx":0.0017,"nx":28,"ny":28,"refTime":"2023-09-07T09:00:00:Z","depth":0,"parameterNumber":3,"parameterNumberName":"V-component_of_WINDS"},"data":[0,0,0,0,0,0,0,0,0,0,0,0,0,0,0,0,0,0,0,0,0,0,0,0,0,0,0,0,0,0,0,0,0,0,0,0,0,0,0,0,0,0,0,0,0,0,0,0,0,0,0,0,0,0,0,0,0,0,0.309,0.309,0,0.3115,0.3115,0.3116,0.3083,0.3082,0.3081,0.308,0.3109,0.311,0.3112,0,0,0,0,0,0,0,0,0,0,0,0,0,0.3015,0.3017,0.309,0.309,0.309,0.3115,0.3115,0.3116,0.3083,0.3082,0.3081,0.3079,0.3108,0.311,0.3112,0,0,0,0,0,0,0,0,0,0,0,0,0,0.3045,0.3017,0.309,0.3077,0.3076,0.3115,0.3115,0.3116,0.3084,0.3082,0.308,0.3079,0.3107,0.311,0.3113,0.3166,0,0,0.3121,0.3123,0,0,0,0,0,0,0,0,0.3043,0.3048,0.3079,0.3078,0.3077,0.3094,0.31,0.3133,0.3084,0.3081,0.308,0.3078,0.3105,0.3108,0.3117,0.3167,0.3168,0.3122,0.3123,0.3125,0.3125,0,0,0,0,0,0,0,0.3041,0.3047,0.31,0.3079,0.3078,0.3071,0.3073,0.3106,0.3103,0.3081,0.3079,0.3082,0.3105,0.3114,0.3117,0.3169,0.3122,0.3124,0.3126,0.3127,0.3263,0.3265,0,0,0,0,0,0,0.304,0.3045,0.3099,0.31,0.3055,0.3074,0.3076,0.309,0.3102,0.3103,0.3084,0.3081,0.311,0.3114,0.3118,0.3181,0.3124,0.3127,0.3129,0.3262,0.3264,0.3266,0,0,0,0,0,0,0.3039,0.3046,0.3098,0.3072,0.3078,0.3077,0.3093,0.3092,0.3102,0.3104,0.3104,0.3094,0.3109,0.3114,0.3154,0.3182,0.3128,0.3131,0.3259,0.3262,0.3265,0.3308,0,0,0,0,0,0,0.3037,0.3045,0.3065,0.3073,0.308,0.3133,0.3095,0.3094,0.3106,0.3102,0.3114,0.3114,0.3108,0.315,0.3157,0.3185,0.3133,0.3257,0.3261,0.3264,0.3304,0.3312,0.3319,0,0,0,0,0,0.3034,0.3077,0.3066,0.3073,0.3104,0.3134,0.3138,0.313,0.3108,0.3129,0.313,0.3114,0.3177,0.3154,0.3162,0.3191,0.3255,0.326,0.3264,0.3301,0.331,0.3319,0,0,0,0,0,0,0.3073,0.3077,0.3066,0.3112,0.3123,0.3129,0.3154,0.314,0.3159,0.3154,0.3144,0.3147,0.3189,0.3194,0.3168,0.3243,0.3213,0.3219,0.3238,0.3248,0.3255,0.3253,0.3135,0,0,0,0,0,0.3087,0.311,0.3113,0.3153,0.3159,0.3156,0.3168,0.3161,0.3172,0.3177,0.3182,0.3194,0.3217,0.3232,0.3253,0.3304,0.3307,0.3328,0.3335,0.3341,0.3347,0.3375,0.3384,0.328,0.328,0.328,0,0,0.3116,0.3121,0.3137,0.3161,0.3169,0.3194,0.316,0.3188,0.3207,0.3182,0.3219,0.3223,0.3236,0.3282,0.3302,0.3287,0.3376,0.3347,0.3352,0.3354,0.338,0.339,0.3399,0.3283,0.3283,0.3282,0,0,0.3182,0.3188,0.3222,0.323,0.3242,0.3239,0.3247,0.3255,0.3256,0.3293,0.3275,0.3297,0.3337,0.3347,0.3357,0.3426,0.3412,0.3433,0.3472,0.3499,0.3507,0.3514,0.354,0.3549,0.3439,0.3439,0.3439,0,0.3217,0.3253,0.3242,0.3271,0.3282,0.3259,0.3294,0.3303,0.3321,0.333,0.3313,0.3361,0.3369,0.3416,0.3433,0.3442,0.3451,0.3432,0.3507,0.3514,0.3521,0.3545,0.3554,0.3441,0.3441,0.3441,0.344,0,0.3296,0.3322,0.3348,0.3365,0.338,0.3412,0.3405,0.3421,0.3412,0.3411,0.3449,0.3457,0.3479,0.349,0.3481,0.3536,0.3527,0.3508,0.3478,0.3533,0.3556,0.3565,0.3445,0.3444,0.3443,0.3443,0,0,0.3389,0.3398,0.3408,0.3416,0.3426,0.3446,0.3477,0.3498,0.3512,0.3525,0.3552,0.3585,0.3567,0.3579,0.3572,0.3595,0.365,0.3574,0.3574,0.3588,0.3711,0.3726,0.3737,0.364,0.3641,0.3643,0.3711,0,0.3456,0.3508,0.3498,0.355,0.3574,0.3552,0.3579,0.3588,0.3588,0.3609,0.3609,0.3633,0.3608,0.3615,0.3637,0.3638,0.3675,0.3633,0.3665,0.3666,0.3664,0.3749,0.3764,0.3828,0.3719,0.3721,0.3722,0,0.3541,0.3556,0.361,0.3616,0.3626,0.365,0.3668,0.3688,0.3699,0.3697,0.3709,0.3697,0.3729,0.3697,0.3741,0.3713,0.3725,0.3728,0.373,0.3734,0.3698,0.3756,0.3848,0.3858,0.3735,0.3734,0.3733,0,0.3604,0.3638,0.3675,0.3682,0.369,0.3708,0.3712,0.3721,0.3734,0.375,0.3758,0.3778,0.3789,0.3805,0.3798,0.3775,0.3843,0.3811,0.3844,0.3844,0.386,0.386,0.3957,0.3866,0.3866,0.3866,0.3866,0,0.368,0.3714,0.3703,0.3726,0.3764,0.3751,0.3789,0.3791,0.3799,0.3822,0.3804,0.3827,0.3816,0.3838,0.3833,0.387,0.3875,0.3875,0.3874,0.3878,0.3878,0.3887,0.3883,0.3868,0.3868,0.3867,0.3867,0,0.3758,0.3752,0.379,0.3794,0.3796,0.3824,0.3828,0.3849,0.3847,0.3877,0.3883,0.388,0.3905,0.3899,0.3927,0.3923,0.3971,0.3963,0.3967,0.3966,0.3999,0.3996,0.4107,0.4121,0.402,0.4021,0.4021,0,0.3808,0.3833,0.384,0.3853,0.3859,0.3881,0.3894,0.3883,0.3897,0.3911,0.3931,0.3954,0.3971,0.4012,0.4013,0.4034,0.4027,0.4064,0.403,0.4033,0.4029,0.4028,0.4031,0.4072,0.4073,0.4074,0.4075,0,0.3897,0.3892,0.3911,0.3928,0.3944,0.3957,0.3969,0.3982,0.3972,0.3989,0.4013,0.4027,0.4054,0.4077,0.4096,0.4101,0.4087,0.4085,0.4094,0.4099,0.41,0.4101,0.3987,0.4083,0.4082,0.4081,0.4081,0.4081,0.3962,0.3984,0.3992,0.4013,0.4021,0.4032,0.4053,0.4052,0.4072,0.4093,0.4085,0.4114,0.4123,0.4147,0.4155,0.4177,0.4163,0.4176,0.4179,0.4183,0.4187,0.4095,0.418,0.418,0.418,0.418,0.4179,0,0.4051,0.4055,0.4075,0.4091,0.4108,0.4091,0.4103,0.4119,0.4144,0.4154,0.4171,0.4199,0.4221,0.4223,0.4244,0.4262,0.4256,0.4268,0.4267,0.4269,0.4198,0.4189,0.4273,0.4273,0.4273,0.4272,0.4272,0.4272,0.41,0.4136,0.4132,0.4172,0.4175,0.4202,0.421,0.4221,0.4229,0.426,0.4278,0.4279,0.4286,0.4307,0.4327,0.4327,0.4336,0.4351,0.4349,0.4283,0.4274,0.4265,0.4256,0.4353,0.4353,0.4418,0.4418,0.4419]}]]